FW1511 Weather Reports


Display with metric or nautical units.
time (UTC)temp
F
wind
direction
speed
MPH
gust
MPH
rain 1hr
in
rain 24hr
in
rain mn
in
humidity
%
barometer
mb
20260506123101 52 232 0.0 4.0 0.00 0.00 0.00 89 1018.7
20260506121500 52 178 0.0 3.0 0.00 0.00 0.00 89 1018.4
20260506120838 53 0 0.0 2.0 0.00 0.00 0.00 89 1017.9
20260506120111 52 179 0.0 1.0 0.00 0.00 0.00 89 1018.3
20260506115938 53 0 0.0 2.0 0.00 0.00 0.00 89 1017.8
20260506115038 53 0 0.0 2.0 0.00 0.00 0.00 89 1017.7
20260506114502 53 133 0.0 2.0 0.00 0.00 0.00 89 1018.1
20260506114138 53 0 0.0 2.0 0.00 0.00 0.00 89 1017.5
20260506113238 53 183 0.0 3.0 0.00 0.00 0.00 89 1017.4
20260506113101 53 196 0.0 3.0 0.00 0.00 0.00 89 1017.9
20260506112338 53 0 0.0 3.0 0.00 0.00 0.00 89 1017.5
20260506111501 53 179 0.0 1.0 0.00 0.00 0.00 89 1017.9
20260506111438 53 0 0.0 1.0 0.00 0.00 0.00 89 1017.4
20260506110538 53 0 0.0 2.0 0.00 0.00 0.00 89 1017.5
20260506110115 53 174 0.0 3.0 0.00 0.00 0.00 89 1017.9
20260506105638 53 0 0.0 2.0 0.00 0.00 0.00 89 1017.3
20260506104738 53 0 0.0 3.0 0.00 0.00 0.00 89 1017.4
20260506104502 53 114 0.0 3.0 0.00 0.00 0.00 89 1017.8
20260506103838 53 0 0.0 2.0 0.00 0.00 0.00 89 1017.3
20260506103101 53 129 0.0 2.0 0.00 0.00 0.00 89 1017.8
20260506102038 53 0 0.0 0.0 0.00 0.00 0.00 89 1017.2
20260506101504 53 148 0.0 0.0 0.00 0.00 0.00 89 1017.5
20260506101138 53 0 0.0 0.0 0.00 0.00 0.00 89 1017.2
20260506100238 53 0 0.0 1.0 0.00 0.00 0.00 88 1017.2
20260506100113 53 143 0.0 1.0 0.00 0.00 0.00 88 1017.7
20260506095338 53 0 0.0 0.0 0.00 0.00 0.00 89 1017.0
20260506094502 53 142 0.0 2.0 0.00 0.00 0.00 88 1017.6
20260506094438 53 0 0.0 2.0 0.00 0.00 0.00 88 1017.0
20260506093538 53 0 0.0 1.0 0.00 0.00 0.00 88 1017.0
20260506093102 53 184 0.0 2.0 0.00 0.00 0.00 88 1017.5
20260506092638 53 0 0.0 2.0 0.00 0.00 0.00 88 1017.0
20260506091738 53 155 0.0 2.0 0.00 0.00 0.00 88 1017.1
20260506091502 53 111 0.0 2.0 0.00 0.00 0.00 88 1017.4
20260506090838 53 217 1.0 4.0 0.00 0.00 0.00 88 1017.0
20260506090106 53 219 1.0 4.0 0.00 0.00 0.00 87 1017.6
20260506085938 54 210 1.0 4.0 0.00 0.00 0.00 87 1017.1
20260506085038 54 150 0.0 3.0 0.00 0.00 0.00 87 1017.1
20260506084502 53 169 0.0 3.0 0.00 0.00 0.00 87 1017.5
20260506084138 54 170 1.0 4.0 0.00 0.00 0.00 87 1017.0
20260506083238 54 166 0.0 3.0 0.00 0.00 0.00 87 1016.7
20260506083101 53 191 1.0 4.0 0.00 0.00 0.00 87 1017.2
20260506082338 54 157 0.0 2.0 0.00 0.00 0.00 87 1016.7
20260506081502 53 226 0.0 3.0 0.00 0.00 0.00 87 1017.3
20260506080106 54 218 1.0 4.0 0.00 0.00 0.00 86 1016.9
20260506073101 54 184 0.0 3.0 0.00 0.00 0.00 86 1016.6
20260506072938 54 176 0.0 3.0 0.00 0.00 0.00 86 1016.1
20260506071502 54 167 0.0 4.0 0.00 0.00 0.00 87 1016.6
20260506071138 54 0 0.0 3.0 0.00 0.00 0.00 86 1016.1
20260506070238 54 0 0.0 4.0 0.00 0.00 0.00 87 1016.1
20260506070105 54 205 1.0 4.0 0.00 0.00 0.00 87 1016.6
20260506061738 54 0 0.0 6.0 0.00 0.00 0.00 88 1015.9
20260506061503 53 193 0.0 6.0 0.00 0.00 0.00 89 1016.3
20260506060838 53 0 0.0 3.0 0.00 0.00 0.00 89 1015.9
20260506060104 53 167 0.0 3.0 0.00 0.00 0.00 90 1016.4
20260506050538 54 0 0.0 1.0 0.00 0.00 0.00 88 1015.6
20260506050125 53 153 0.0 1.0 0.00 0.00 0.00 88 1016.2
20260506044738 54 141 1.0 2.0 0.00 0.00 0.00 87 1015.5
20260506044503 54 128 0.0 2.0 0.00 0.00 0.00 87 1016.1
20260506043101 54 172 0.0 3.0 0.00 0.00 0.00 86 1016.0
20260506042939 55 0 0.0 2.0 0.00 0.00 0.00 86 1015.5
20260506042038 55 0 0.0 3.0 0.00 0.00 0.00 86 1015.3
20260506041502 55 203 0.0 5.0 0.00 0.00 0.00 85 1015.6
20260506041139 56 0 0.0 5.0 0.00 0.00 0.00 85 1015.2
20260506040238 56 0 0.0 2.0 0.00 0.00 0.00 85 1014.9
20260506034502 56 172 0.0 1.0 0.00 0.00 0.00 84 1015.3
20260506034438 57 0 0.0 1.0 0.00 0.00 0.00 84 1014.8
20260506033538 57 0 0.0 3.0 0.00 0.00 0.00 83 1014.8
20260506032638 58 0 0.0 3.0 0.00 0.00 0.00 82 1014.7
20260506031739 58 0 0.0 2.0 0.00 0.00 0.00 82 1014.7
20260506031503 58 167 0.0 2.0 0.00 0.00 0.00 81 1015.2
20260506030838 59 0 0.0 2.0 0.00 0.00 0.00 81 1014.5
20260506025939 59 0 0.0 2.0 0.00 0.00 0.00 80 1014.5
20260506025038 60 0 0.0 3.0 0.00 0.00 0.00 79 1014.5
20260506024502 60 239 0.0 3.0 0.00 0.00 0.00 78 1015.0
20260506024139 60 358 1.0 3.0 0.00 0.00 0.00 78 1014.3
20260506023239 60 309 1.0 4.0 0.00 0.00 0.00 77 1014.3
20260506023110 60 253 1.0 6.0 0.00 0.00 0.00 77 1014.9
20260506022339 61 255 2.0 5.0 0.00 0.00 0.00 76 1014.4
20260506021502 62 250 2.0 5.0 0.00 0.00 0.00 74 1015.0
20260506021438 62 289 1.0 5.0 0.00 0.00 0.00 74 1014.4
20260506015639 64 305 2.0 4.0 0.00 0.00 0.00 73 1014.3
20260506014738 64 282 2.0 6.0 0.00 0.00 0.00 72 1014.3
20260506014501 64 328 2.0 6.0 0.00 0.00 0.00 71 1014.8
20260506013838 65 274 1.0 5.0 0.00 0.00 0.00 71 1014.2
20260506013111 65 303 0.0 4.0 0.00 0.00 0.00 70 1014.7
20260506012938 66 252 1.0 4.0 0.00 0.00 0.00 70 1014.3
20260506012039 66 252 1.0 6.0 0.00 0.00 0.00 70 1014.1
20260506011501 65 243 1.0 4.0 0.00 0.00 0.00 70 1014.7
20260506010238 66 268 1.0 4.0 0.00 0.00 0.00 71 1014.2
20260506010103 65 156 1.0 4.0 0.00 0.00 0.00 71 1014.7
20260506005338 65 264 1.0 5.0 0.00 0.00 0.00 70 1014.3
20260506004503 65 185 1.0 7.0 0.00 0.00 0.00 71 1014.9
20260506004439 65 257 2.0 7.0 0.00 0.00 0.00 71 1014.4
20260506003538 65 271 2.0 6.0 0.00 0.00 0.00 70 1014.4
20260506003105 65 288 1.0 6.0 0.00 0.00 0.00 73 1014.8
20260506002638 64 277 2.0 5.0 0.00 0.00 0.00 74 1014.4
20260506001502 64 339 2.0 4.0 0.00 0.00 0.00 73 1014.9
20260506000839 64 277 2.0 6.0 0.00 0.00 0.00 74 1014.5
20260505235939 64 260 2.0 7.0 0.00 0.00 0.00 75 1014.5
20260505235038 64 288 2.0 8.0 0.00 0.00 0.00 74 1014.6
20260505234502 63 34 1.0 8.0 0.00 0.00 0.00 75 1015.2
20260505234139 63 302 1.0 7.0 0.00 0.00 0.00 74 1014.7
20260505233239 64 260 1.0 5.0 0.00 0.00 0.00 73 1014.9
20260505233106 64 257 0.0 4.0 0.00 0.00 0.00 73 1015.3
20260505232339 64 291 1.0 5.0 0.00 0.00 0.00 73 1014.9
20260505231502 63 216 0.0 4.0 0.00 0.00 0.00 74 1015.3
20260505231439 64 277 1.0 4.0 0.00 0.00 0.00 74 1014.7
20260505230539 64 200 2.0 5.0 0.00 0.00 0.00 74 1014.9
20260505225639 64 240 1.0 7.0 0.00 0.00 0.00 73 1014.9
20260505224739 63 242 1.0 6.0 0.00 0.00 0.00 74 1015.0
20260505224502 63 187 0.0 6.0 0.00 0.00 0.00 74 1015.6
20260505223839 63 266 1.0 6.0 0.00 0.00 0.00 76 1015.1
20260505223102 63 307 1.0 6.0 0.00 0.00 0.00 74 1015.8
20260505222939 63 277 1.0 5.0 0.00 0.00 0.00 74 1015.1
20260505222040 63 226 1.0 4.0 0.00 0.00 0.00 75 1015.3
20260505221503 63 134 1.0 4.0 0.00 0.00 0.00 75 1015.7
20260505221139 63 291 1.0 4.0 0.00 0.00 0.00 74 1015.3
20260505220103 63 261 0.0 4.0 0.00 0.00 0.00 75 1015.8
20260505215339 63 301 1.0 4.0 0.00 0.00 0.00 74 1015.4
20260505214502 62 339 0.0 4.0 0.00 0.00 0.00 73 1015.8
20260505214439 63 285 0.0 4.0 0.00 0.00 0.00 73 1015.4
20260505213539 63 165 0.0 1.0 0.00 0.00 0.00 74 1015.6
20260505213102 63 169 0.0 2.0 0.00 0.00 0.00 74 1016.1
20260505212639 63 0 0.0 4.0 0.00 0.00 0.00 74 1015.5
20260505211739 62 216 1.0 4.0 0.00 0.00 0.00 76 1015.7
20260505211508 62 228 0.0 4.0 0.00 0.00 0.00 75 1016.3
20260505210839 62 223 1.0 3.0 0.00 0.00 0.00 76 1015.6
20260505205939 62 177 1.0 4.0 0.00 0.00 0.00 76 1015.7
20260505205039 62 157 0.0 3.0 0.00 0.00 0.00 75 1015.6
20260505204503 62 148 0.0 2.0 0.00 0.00 0.00 76 1016.1
20260505204139 62 0 0.0 3.0 0.00 0.00 0.00 74 1015.7
20260505203239 62 167 1.0 3.0 0.00 0.00 0.00 76 1015.6
20260505203125 61 174 0.0 4.0 0.00 0.00 0.00 76 1016.1
20260505201502 61 164 1.0 3.0 0.00 0.00 0.00 77 1016.0
20260505201439 62 167 1.0 3.0 0.00 0.00 0.00 76 1015.6
20260505200539 61 145 1.0 6.0 0.00 0.00 0.00 77 1015.6
20260505195639 61 146 2.0 4.0 0.00 0.00 0.00 77 1015.5
20260505194739 60 129 2.0 6.0 0.00 0.00 0.00 78 1015.6
20260505194502 60 129 3.0 6.0 0.00 0.00 0.00 77 1016.1
20260505193839 61 149 1.0 6.0 0.00 0.00 0.00 76 1015.6
20260505193103 60 207 1.0 4.0 0.00 0.00 0.00 76 1016.1
20260505192939 61 144 2.0 4.0 0.00 0.00 0.00 76 1015.7
20260505192039 60 158 1.0 6.0 0.00 0.00 0.00 77 1015.6
20260505191508 60 173 1.0 5.0 0.00 0.00 0.00 76 1016.0
20260505191139 60 152 1.0 4.0 0.00 0.00 0.00 77 1015.5
20260505184504 59 229 0.0 2.0 0.00 0.00 0.00 77 1016.1
20260505183539 60 202 0.0 4.0 0.00 0.00 0.00 77 1015.6
20260505183102 59 174 1.0 4.0 0.00 0.00 0.00 77 1016.1
20260505182639 60 0 0.0 2.0 0.00 0.00 0.00 77 1015.6
20260505181740 60 155 0.0 2.0 0.00 0.00 0.00 78 1015.5
20260505181502 59 201 0.0 2.0 0.00 0.00 0.00 79 1016.0
20260505180839 59 153 1.0 3.0 0.00 0.00 0.00 79 1015.5
20260505180104 58 127 1.0 4.0 0.00 0.00 0.00 79 1016.0
20260505175939 59 155 1.0 4.0 0.00 0.00 0.00 79 1015.4
20260505175039 58 166 1.0 2.0 0.00 0.00 0.00 81 1015.4
20260505174506 58 181 0.0 3.0 0.00 0.00 0.00 80 1016.0
20260505174139 58 176 1.0 4.0 0.00 0.00 0.00 80 1015.5
20260505173239 58 170 1.0 4.0 0.00 0.00 0.00 80 1015.4
20260505173102 58 209 0.0 3.0 0.00 0.00 0.00 80 1015.8
20260505172339 58 167 1.0 4.0 0.00 0.00 0.00 80 1015.3
20260505171505 57 193 0.0 3.0 0.00 0.00 0.00 81 1015.7
20260505171439 58 153 1.0 3.0 0.00 0.00 0.00 81 1015.2
20260505170539 58 161 1.0 5.0 0.00 0.00 0.00 82 1015.1
20260505170112 57 172 0.0 5.0 0.00 0.00 0.00 81 1015.6
20260505165639 58 0 0.0 0.0 0.00 0.00 0.00 80 1015.2
20260505163045 57 128 0.0 4.0 0.00 0.00 0.00 82 1014.9
20260505163002 57 133 0.0 4.0 0.00 0.00 0.00 82 1015.4
20260505162145 57 142 1.0 3.0 0.00 0.00 0.00 83 1014.9
20260505161616 56 155 0.0 3.0 0.00 0.00 0.00 83 1015.3
20260505161245 57 151 0.0 3.0 0.00 0.00 0.00 83 1014.8
20260505160345 56 144 2.0 5.0 0.00 0.00 0.00 84 1014.9
20260505153002 56 145 0.0 4.0 0.00 0.00 0.00 84 1015.0
20260505151606 56 146 1.0 3.0 0.00 0.00 0.00 85 1015.1
20260505150945 56 142 0.0 3.0 0.00 0.00 0.00 85 1014.5
20260505140645 55 0 0.0 0.0 0.00 0.00 0.00 88 1014.2
20260505124604 54 160 0.0 0.0 0.00 0.00 0.00 88 1014.0
20260505124545 54 0 0.0 0.0 0.00 0.00 0.00 88 1013.5